This is the latest recevied weather packets stored in our database for station/object OK1KKY-18. If no packets are shown the sender has not sent any weather packets the latest 10 day(s).
| Time | Temp. | Humidity | Pressure | Rain* | Wind** | Luminosity | Snow |
|---|---|---|---|---|---|---|---|
| 1787778440 | 13.89° C | 81% | 1022.1 hPa | - | - | - | - |
| 1787777840 | 13.89° C | 88% | 1022.3 hPa | - | - | - | - |
| 1787777240 | 13.33° C | 89% | 1022.2 hPa | - | - | - | - |
| 1787776640 | 13.89° C | 81% | 1022.2 hPa | - | - | - | - |
| 1787776039 | 13.89° C | 84% | 1022.1 hPa | - | - | - | - |
| 1787775440 | 13.89° C | 86% | 1022.2 hPa | - | - | - | - |
| 1787774840 | 13.89° C | 89% | 1022.1 hPa | - | - | - | - |
| 1787774240 | 13.89° C | 91% | 1022.1 hPa | - | - | - | - |
| 1787773640 | 13.33° C | 93% | 1022.1 hPa | - | - | - | - |
| 1787772440 | 13.33° C | 10% | - | - | - | - | - |
| 1787771841 | 13.33° C | 10% | - | - | - | - | - |
| 1787771240 | 13.33° C | 98% | 1022.1 hPa | - | - | - | - |
| 1787770640 | 13.33° C | 90% | 1021.9 hPa | - | - | - | - |
| 1787770040 | 13.33° C | 10% | - | - | - | - | - |
| 1787769440 | 13.33° C | 10% | - | - | - | - | - |
| 1787768841 | 13.33° C | 10% | - | - | - | - | - |
| 1787768240 | 13.89° C | 98% | 1021.9 hPa | - | - | - | - |
| 1787767640 | 13.89° C | 99% | 1021.9 hPa | - | - | - | - |
| 1787767041 | 13.89° C | 97% | 1021.9 hPa | - | - | - | - |
| 1787766440 | 13.89° C | 96% | 1021.9 hPa | - | - | - | - |
| 1787765840 | 13.89° C | 94% | 1021.9 hPa | - | - | - | - |
| 1787765240 | 13.89° C | 95% | 1021.9 hPa | - | - | - | - |
| 1787764640 | 14.44° C | 93% | 1021.9 hPa | - | - | - | - |
| 1787764040 | 14.44° C | 94% | 1021.9 hPa | - | - | - | - |
| 1787763440 | 14.44° C | 93% | 1021.9 hPa | - | - | - | - |
* Rain since midnight (hover to see other rain measurements)
** Current wind speed in m/s (hover to see current wind gust speed)